[[{"header":{"parameterUnit":"m.s-1","parameterCategory":1,"la1":30.2991,"la2":30.254,"lo1":-89.0895,"lo2":-89.0444,"dy":0.0017,"dx":0.0017,"nx":28,"ny":28,"refTime":"2025-07-24T03:00:00:Z","depth":0,"parameterNumber":2,"parameterNumberName":"U-component_of_WINDS"},"data":[0,0,0,0,0,0,0,0,0,0,0,0,0,0,0,0,0,0,0,0,0,0,0,0,0,0,0,0,0,0,0,0,0,0,0,0,0,0,0,0,0,0,0,0,0,0,0,0,0,0,0,0,0,0,0,0,0,0,-2.382,-2.3821,0,-2.3935,-2.3937,-2.3938,-2.3924,-2.3922,-2.392,-2.3919,-2.4041,-2.4045,-2.405,0,0,0,0,0,0,0,0,0,0,0,0,0,-2.3592,-2.3596,-2.382,-2.3821,-2.3823,-2.3935,-2.3937,-2.3938,-2.3924,-2.3922,-2.392,-2.3918,-2.4039,-2.4045,-2.4051,0,0,0,0,0,0,0,0,0,0,0,0,0,-2.3698,-2.3598,-2.382,-2.3829,-2.3831,-2.3935,-2.3937,-2.3939,-2.3925,-2.3922,-2.3919,-2.3917,-2.4037,-2.4044,-2.4052,-2.4154,0,0,-2.4075,-2.4078,0,0,0,0,0,0,0,0,-2.3692,-2.3706,-2.3826,-2.3829,-2.3831,-2.3912,-2.3901,-2.4011,-2.3926,-2.3889,-2.3919,-2.3915,-2.4001,-2.4011,-2.4039,-2.416,-2.4165,-2.4075,-2.408,-2.4083,-2.4085,0,0,0,0,0,0,0,-2.3684,-2.3701,-2.3866,-2.3828,-2.3831,-2.383,-2.3841,-2.3922,-2.396,-2.3892,-2.3892,-2.3905,-2.4001,-2.4032,-2.4042,-2.4167,-2.4075,-2.4082,-2.4086,-2.4089,-2.4382,-2.4386,0,0,0,0,0,0,-2.3674,-2.3695,-2.3862,-2.3869,-2.3753,-2.3836,-2.3849,-2.3889,-2.3959,-2.3966,-2.3908,-2.3904,-2.402,-2.4033,-2.4046,-2.4173,-2.4083,-2.409,-2.4094,-2.4379,-2.4383,-2.4387,0,0,0,0,0,0,-2.3669,-2.3689,-2.3857,-2.3782,-2.3803,-2.3843,-2.3888,-2.3893,-2.3923,-2.397,-2.3977,-2.3931,-2.4018,-2.4035,-2.4128,-2.4177,-2.4093,-2.41,-2.4375,-2.438,-2.4385,-2.4426,0,0,0,0,0,0,-2.3663,-2.3687,-2.3725,-2.3783,-2.3807,-2.3936,-2.3891,-2.3897,-2.3936,-2.3932,-2.3994,-2.4002,-2.4018,-2.4117,-2.4135,-2.4186,-2.4106,-2.4371,-2.4378,-2.4383,-2.442,-2.4432,-2.4441,0,0,0,0,0,-2.3655,-2.3732,-2.3727,-2.3747,-2.3855,-2.3939,-2.3953,-2.3968,-2.394,-2.3979,-2.401,-2.4,-2.4168,-2.4126,-2.4147,-2.42,-2.4368,-2.4376,-2.4383,-2.4416,-2.443,-2.4441,0,0,0,0,0,0,-2.368,-2.374,-2.3735,-2.3833,-2.3881,-2.3936,-2.3986,-2.3982,-2.4039,-2.4034,-2.4052,-2.4067,-2.4161,-2.419,-2.4142,-2.4305,-2.4265,-2.4277,-2.4283,-2.4296,-2.4306,-2.4298,-2.4112,0,0,0,0,0,-2.3696,-2.3758,-2.3808,-2.389,-2.3914,-2.3946,-2.3983,-2.3991,-2.4042,-2.4062,-2.4099,-2.415,-2.4215,-2.4257,-2.4319,-2.4425,-2.444,-2.4472,-2.4482,-2.4491,-2.4501,-2.4563,-2.4578,-2.4411,-2.4411,-2.4411,0,0,-2.3732,-2.3773,-2.381,-2.3896,-2.3934,-2.3999,-2.3963,-2.4032,-2.4082,-2.4073,-2.4163,-2.4193,-2.4251,-2.4351,-2.4397,-2.4378,-2.4551,-2.45,-2.4506,-2.4512,-2.4572,-2.4588,-2.4602,-2.4416,-2.4415,-2.4414,0,0,-2.383,-2.3866,-2.3939,-2.3979,-2.4037,-2.4058,-2.4076,-2.4133,-2.4152,-2.4242,-2.4238,-2.4298,-2.4408,-2.4451,-2.4487,-2.4605,-2.4599,-2.4625,-2.4679,-2.4739,-2.4752,-2.4764,-2.4808,-2.4824,-2.4635,-2.4635,-2.4635,0,-2.3867,-2.3963,-2.3978,-2.4049,-2.4088,-2.4083,-2.4159,-2.4197,-2.4273,-2.4301,-2.4278,-2.4419,-2.4457,-2.4569,-2.4598,-2.4627,-2.465,-2.4617,-2.4749,-2.4761,-2.4772,-2.4815,-2.4831,-2.4638,-2.4637,-2.4637,-2.4637,0,-2.4007,-2.4075,-2.4127,-2.42,-2.4246,-2.4319,-2.4347,-2.4391,-2.4396,-2.4421,-2.4515,-2.4562,-2.4634,-2.4661,-2.4667,-2.4776,-2.4762,-2.4744,-2.4704,-2.4791,-2.4831,-2.4847,-2.4642,-2.4641,-2.464,-2.4639,0,0,-2.4122,-2.4205,-2.4224,-2.4258,-2.4323,-2.4377,-2.4451,-2.4522,-2.4561,-2.4614,-2.4679,-2.4774,-2.4758,-2.4799,-2.481,-2.4862,-2.4956,-2.4838,-2.484,-2.486,-2.5082,-2.5096,-2.5114,-2.4953,-2.4956,-2.4958,-2.5078,0,-2.4228,-2.4358,-2.4375,-2.4492,-2.4556,-2.4554,-2.4619,-2.4667,-2.4693,-2.4753,-2.4782,-2.485,-2.4823,-2.4849,-2.49,-2.4934,-2.5001,-2.4925,-2.5015,-2.5018,-2.5001,-2.5135,-2.515,-2.526,-2.5094,-2.5096,-2.5098,0,-2.4368,-2.4425,-2.4548,-2.4607,-2.4635,-2.4693,-2.4761,-2.4817,-2.4873,-2.4889,-2.4936,-2.4942,-2.5022,-2.4978,-2.509,-2.5038,-2.5077,-2.5099,-2.5104,-2.5114,-2.5064,-2.515,-2.5295,-2.5312,-2.5123,-2.5121,-2.5119,0,-2.4442,-2.455,-2.4638,-2.4667,-2.4738,-2.478,-2.4812,-2.4865,-2.4907,-2.4967,-2.4996,-2.5064,-2.5103,-2.5157,-2.5182,-2.5147,-2.5294,-2.5251,-2.5311,-2.5311,-2.5342,-2.534,-2.5497,-2.5365,-2.5365,-2.5364,-2.5364,0,-2.4558,-2.4634,-2.4673,-2.4727,-2.4813,-2.4833,-2.4918,-2.4949,-2.4997,-2.5059,-2.5062,-2.5121,-2.5149,-2.5213,-2.5233,-2.5325,-2.5342,-2.5359,-2.5363,-2.5359,-2.5357,-2.5385,-2.5378,-2.5369,-2.5368,-2.5367,-2.5366,0,-2.4655,-2.4683,-2.478,-2.484,-2.4857,-2.4918,-2.497,-2.5024,-2.5051,-2.513,-2.5149,-2.5191,-2.5267,-2.5297,-2.539,-2.5404,-2.551,-2.5508,-2.5491,-2.5493,-2.5551,-2.5546,-2.5732,-2.5759,-2.5608,-2.5609,-2.561,0,-2.4727,-2.4786,-2.4852,-2.4894,-2.4927,-2.4994,-2.5037,-2.5061,-2.5107,-2.5177,-2.5224,-2.5299,-2.5361,-2.5483,-2.5523,-2.5595,-2.5596,-2.5656,-2.5607,-2.5602,-2.5599,-2.5596,-2.5603,-2.5666,-2.5667,-2.5668,-2.5669,0,-2.4854,-2.4866,-2.4928,-2.4997,-2.5049,-2.5104,-2.5158,-2.5192,-2.5224,-2.5276,-2.5354,-2.5401,-2.5497,-2.5573,-2.5648,-2.5683,-2.5683,-2.5685,-2.5703,-2.5699,-2.5688,-2.5697,-2.5517,-2.568,-2.5679,-2.5678,-2.5678,-2.5677,-2.4942,-2.4995,-2.5051,-2.5121,-2.5165,-2.5216,-2.527,-2.5304,-2.5369,-2.5447,-2.5458,-2.5542,-2.5601,-2.5701,-2.574,-2.5807,-2.5792,-2.5817,-2.5824,-2.583,-2.5835,-2.5676,-2.5821,-2.5821,-2.582,-2.582,-2.582,0,-2.507,-2.5107,-2.5171,-2.5247,-2.5303,-2.5297,-2.5358,-2.5406,-2.5479,-2.5533,-2.5594,-2.5685,-2.576,-2.5807,-2.5883,-2.5929,-2.5931,-2.5948,-2.5945,-2.5954,-2.5844,-2.5821,-2.5945,-2.5945,-2.5945,-2.5945,-2.5945,-2.5945,-2.5144,-2.5234,-2.5253,-2.5366,-2.5403,-2.5484,-2.552,-2.5568,-2.5612,-2.5713,-2.5775,-2.5804,-2.5857,-2.5938,-2.6007,-2.602,-2.6048,-2.6067,-2.6079,-2.5975,-2.5962,-2.5949,-2.5928,-2.6073,-2.6073,-2.6184,-2.6185,-2.6186]},{"header":{"parameterUnit":"m.s-1","parameterCategory":1,"la1":30.2991,"la2":30.254,"lo1":-89.0895,"lo2":-89.0444,"dy":0.0017,"dx":0.0017,"nx":28,"ny":28,"refTime":"2025-07-24T03:00:00:Z","depth":0,"parameterNumber":3,"parameterNumberName":"V-component_of_WINDS"},"data":[0,0,0,0,0,0,0,0,0,0,0,0,0,0,0,0,0,0,0,0,0,0,0,0,0,0,0,0,0,0,0,0,0,0,0,0,0,0,0,0,0,0,0,0,0,0,0,0,0,0,0,0,0,0,0,0,0,0,0.6204,0.6205,0,0.627,0.6271,0.6272,0.6335,0.6336,0.6336,0.6337,0.6403,0.6404,0.6405,0,0,0,0,0,0,0,0,0,0,0,0,0,0.613,0.6131,0.6204,0.6205,0.6206,0.627,0.6271,0.6272,0.6335,0.6336,0.6337,0.6338,0.6402,0.6404,0.6405,0,0,0,0,0,0,0,0,0,0,0,0,0,0.6176,0.6132,0.6204,0.6245,0.6249,0.627,0.6271,0.6272,0.6334,0.6336,0.6337,0.6338,0.6402,0.6403,0.6405,0.639,0,0,0.6409,0.641,0,0,0,0,0,0,0,0,0.6173,0.6178,0.6238,0.6242,0.6247,0.6296,0.6269,0.6312,0.6334,0.6302,0.6337,0.6339,0.6366,0.637,0.638,0.6393,0.6396,0.641,0.641,0.6411,0.6412,0,0,0,0,0,0,0,0.617,0.6176,0.623,0.6239,0.6244,0.6259,0.6267,0.6277,0.6326,0.6305,0.631,0.6317,0.6369,0.6378,0.6382,0.6397,0.641,0.6411,0.6412,0.6412,0.6399,0.6397,0,0,0,0,0,0,0.6161,0.6173,0.6228,0.6232,0.6212,0.626,0.6268,0.6279,0.6326,0.6335,0.6316,0.6319,0.6375,0.638,0.6385,0.6369,0.6411,0.6412,0.6413,0.64,0.6398,0.6397,0,0,0,0,0,0,0.6159,0.6165,0.6226,0.6204,0.6213,0.626,0.6271,0.6279,0.6289,0.6335,0.6343,0.6317,0.6377,0.6383,0.6388,0.6372,0.6413,0.6415,0.6401,0.6399,0.6398,0.6337,0,0,0,0,0,0,0.6156,0.6164,0.6159,0.6203,0.6214,0.6228,0.627,0.628,0.6292,0.6298,0.6338,0.6346,0.6378,0.6385,0.6389,0.6375,0.6416,0.6403,0.64,0.6398,0.6341,0.6333,0.6327,0,0,0,0,0,0.6154,0.614,0.6159,0.6165,0.6209,0.6227,0.6233,0.6271,0.6291,0.6286,0.6314,0.6345,0.6373,0.6385,0.639,0.6376,0.6404,0.6401,0.6398,0.6344,0.6335,0.6327,0,0,0,0,0,0,0.6092,0.6146,0.6168,0.6168,0.6193,0.6238,0.6233,0.626,0.6279,0.6283,0.6329,0.6338,0.6337,0.6358,0.637,0.6363,0.6393,0.6391,0.6349,0.6341,0.6335,0.6329,0.6417,0,0,0,0,0,0.6079,0.609,0.6136,0.6132,0.6143,0.6186,0.6195,0.6222,0.6249,0.6259,0.6289,0.6313,0.6327,0.6336,0.6352,0.6345,0.6353,0.6337,0.633,0.6324,0.6321,0.6317,0.631,0.6388,0.6388,0.6388,0,0,0.6051,0.6082,0.6086,0.612,0.6142,0.6151,0.6194,0.6202,0.6209,0.626,0.6267,0.6289,0.6319,0.6317,0.6318,0.6334,0.6302,0.6321,0.6316,0.6316,0.6314,0.6306,0.63,0.6386,0.6386,0.6386,0,0,0.6004,0.603,0.6028,0.6049,0.6082,0.6111,0.611,0.6151,0.6168,0.6175,0.6213,0.6222,0.6246,0.6266,0.6279,0.6238,0.6266,0.6243,0.6206,0.6202,0.6195,0.619,0.6174,0.6168,0.624,0.624,0.624,0,0.5965,0.5981,0.6023,0.6029,0.6042,0.609,0.6087,0.6106,0.6142,0.6149,0.6167,0.6198,0.6222,0.6224,0.6214,0.6224,0.6223,0.6237,0.6193,0.6188,0.6184,0.6169,0.6163,0.6237,0.6237,0.6237,0.6238,0,0.5931,0.5941,0.5936,0.5969,0.5982,0.5984,0.6025,0.6033,0.6058,0.6084,0.609,0.6121,0.6142,0.6146,0.6171,0.6151,0.616,0.6185,0.6215,0.6173,0.6159,0.6154,0.6232,0.6233,0.6234,0.6235,0,0,0.5847,0.5903,0.59,0.5916,0.5955,0.5964,0.5967,0.5989,0.5994,0.6017,0.602,0.6039,0.6062,0.6076,0.6105,0.6101,0.6064,0.6126,0.6127,0.6112,0.6042,0.6022,0.6015,0.6084,0.6083,0.6082,0.6039,0,0.5805,0.5814,0.5852,0.5849,0.5858,0.5903,0.5906,0.593,0.5954,0.5965,0.5992,0.6004,0.6034,0.6043,0.6041,0.6069,0.6051,0.6073,0.6085,0.6085,0.6074,0.6008,0.5987,0.5944,0.6034,0.6033,0.6033,0,0.5758,0.5778,0.5776,0.5815,0.582,0.5822,0.5844,0.5854,0.5882,0.59,0.5915,0.5947,0.5951,0.5981,0.5987,0.6001,0.6008,0.6023,0.6022,0.6023,0.6055,0.6005,0.5932,0.5925,0.6025,0.6026,0.6027,0,0.5694,0.5721,0.5723,0.5735,0.578,0.578,0.5799,0.5828,0.5838,0.5858,0.5864,0.5884,0.5894,0.5908,0.5943,0.5962,0.5944,0.5978,0.5958,0.5957,0.5951,0.595,0.5876,0.5958,0.5959,0.5959,0.5959,0,0.5643,0.5639,0.5695,0.5696,0.5693,0.5736,0.5731,0.5754,0.5779,0.5785,0.5825,0.5829,0.5877,0.5886,0.5913,0.5913,0.5918,0.5931,0.5938,0.5926,0.5924,0.593,0.5933,0.5957,0.5957,0.5958,0.5958,0,0.557,0.5608,0.5612,0.5655,0.5665,0.5661,0.5697,0.5699,0.5726,0.5732,0.5736,0.5777,0.579,0.5827,0.5849,0.5868,0.5858,0.5873,0.5849,0.5853,0.583,0.5831,0.5755,0.5747,0.5837,0.5836,0.5835,0,0.5534,0.5533,0.5575,0.5581,0.5598,0.5609,0.5619,0.5661,0.5671,0.5701,0.5699,0.5715,0.573,0.5748,0.5779,0.5796,0.581,0.5782,0.5813,0.58,0.5807,0.5806,0.5805,0.5775,0.5774,0.5773,0.5772,0,0.5465,0.5484,0.5498,0.5518,0.5529,0.5547,0.5567,0.557,0.5617,0.5625,0.5639,0.565,0.5672,0.5687,0.5708,0.5727,0.5756,0.5763,0.5758,0.5745,0.573,0.5736,0.5828,0.5764,0.5765,0.5765,0.5766,0.5766,0.5409,0.5408,0.5438,0.5452,0.5471,0.5489,0.5492,0.5519,0.5531,0.5553,0.5577,0.5587,0.5614,0.5646,0.5662,0.567,0.5686,0.5681,0.5679,0.5676,0.567,0.5731,0.5674,0.5675,0.5675,0.5675,0.5675,0,0.534,0.5361,0.5373,0.54,0.541,0.5439,0.5462,0.5468,0.5477,0.55,0.5513,0.5528,0.5542,0.5575,0.5592,0.5591,0.5605,0.5594,0.5594,0.5597,0.5656,0.5656,0.5583,0.5583,0.5583,0.5583,0.5583,0.5583,0.5305,0.5306,0.5327,0.5338,0.5359,0.5369,0.538,0.5396,0.5414,0.5428,0.544,0.5462,0.5488,0.5507,0.5521,0.553,0.5533,0.5517,0.5531,0.5584,0.5593,0.5601,0.5602,0.5518,0.5518,0.5471,0.5471,0.547]}]]